QFA95 YPAD-YPPH

Flight info

Callsign QFA95
Flight time 2h 36m
Altitude 36000
Route AREPA H54 KAMBI Q32 NODEV Q10 MALUP Q158 KABLI
Aircraft B742/H-SDFHIRWXY/L

Departure

Time 2026-05-06 07:22
Airport Adelaide International Airport (YPAD)

Arrival

Time 2026-05-06 09:59
Airport Perth International Airport (YPPH)
Time Latitude Longitude Altitude Speed Heading
2026-05-06 07:08 -34.93940 138.53832 42 ft 0 kts 320°
2026-05-06 07:15 -34.93949 138.53841 42 ft 2 kts 319°
2026-05-06 07:15 -34.93953 138.53845 42 ft 2 kts 319°
2026-05-06 07:16 -34.93958 138.53850 42 ft 2 kts 320°
2026-05-06 07:16 -34.93970 138.53862 42 ft 2 kts 320°
2026-05-06 07:16 -34.93981 138.53874 41 ft 2 kts 319°
2026-05-06 07:17 -34.93988 138.53882 41 ft 2 kts 320°
2026-05-06 07:17 -34.93998 138.53896 41 ft 2 kts 296°
2026-05-06 07:17 -34.94002 138.53912 41 ft 2 kts 274°
2026-05-06 07:17 -34.94002 138.53920 41 ft 0 kts 269°
2026-05-06 07:20 -34.94009 138.53891 41 ft 10 kts 236°
2026-05-06 07:20 -34.94083 138.53929 41 ft 17 kts 90°
2026-05-06 07:20 -34.94011 138.54068 41 ft 21 kts 48°
2026-05-06 07:21 -34.93970 138.54213 43 ft 18 kts 127°
2026-05-06 07:21 -34.94082 138.54271 42 ft 15 kts 216°
2026-05-06 07:21 -34.94163 138.54178 41 ft 17 kts 229°
2026-05-06 07:21 -34.94239 138.54066 39 ft 17 kts 230°
2026-05-06 07:22 -34.94426 138.53793 38 ft 74 kts 229°
2026-05-06 07:22 -34.94898 138.53108 36 ft 134 kts 230°
2026-05-06 07:22 -34.95545 138.52164 419 ft 149 kts 229°
2026-05-06 07:22 -34.96222 138.51187 1040 ft 153 kts 228°
2026-05-06 07:23 -34.96918 138.50180 1625 ft 160 kts 228°
2026-05-06 07:23 -34.97631 138.49147 2020 ft 163 kts 227°
2026-05-06 07:23 -34.98375 138.48068 2348 ft 170 kts 227°
2026-05-06 07:23 -34.99171 138.46913 2619 ft 183 kts 227°
2026-05-06 07:24 -35.00017 138.45685 2866 ft 198 kts 227°
2026-05-06 07:24 -35.00948 138.44333 3134 ft 214 kts 227°
2026-05-06 07:24 -35.01942 138.42888 3389 ft 234 kts 228°
2026-05-06 07:24 -35.03042 138.41277 3666 ft 256 kts 230°
2026-05-06 07:25 -35.03912 138.39365 4393 ft 262 kts 252°
2026-05-06 07:25 -35.03909 138.37158 5182 ft 270 kts 283°
2026-05-06 07:25 -35.02935 138.35190 5986 ft 279 kts 313°
2026-05-06 07:25 -35.01241 138.33995 6748 ft 288 kts 337°
2026-05-06 07:26 -34.99289 138.33289 7434 ft 293 kts 338°
2026-05-06 07:26 -34.97422 138.32288 8087 ft 292 kts 326°
2026-05-06 07:26 -34.95655 138.31073 8787 ft 295 kts 326°
2026-05-06 07:26 -34.93832 138.29862 9456 ft 299 kts 327°
2026-05-06 07:27 -34.91978 138.28677 10140 ft 303 kts 327°
2026-05-06 07:27 -34.90084 138.27484 10510 ft 318 kts 328°
2026-05-06 07:27 -34.88049 138.26210 10649 ft 341 kts 328°
2026-05-06 07:27 -34.85842 138.24832 10798 ft 366 kts 328°
2026-05-06 07:28 -34.83502 138.23377 10938 ft 391 kts 329°
2026-05-06 07:28 -34.80999 138.21823 11073 ft 416 kts 329°
2026-05-06 07:28 -34.75982 138.17780 11699 ft 441 kts 310°
2026-05-06 07:29 -34.74026 138.14946 12693 ft 437 kts 303°
2026-05-06 07:29 -34.72242 138.11926 13539 ft 438 kts 301°
2026-05-06 07:29 -34.70523 138.08846 14298 ft 443 kts 300°
2026-05-06 07:29 -34.68802 138.05718 15025 ft 448 kts 300°
2026-05-06 07:30 -34.67043 138.02518 15696 ft 454 kts 300°
2026-05-06 07:30 -34.65277 137.99321 16423 ft 459 kts 300°
2026-05-06 07:30 -34.63478 137.96078 17107 ft 465 kts 300°
2026-05-06 07:30 -34.61674 137.92837 17774 ft 470 kts 300°
2026-05-06 07:31 -34.59809 137.89482 18389 ft 475 kts 299°
2026-05-06 07:31 -34.58232 137.85996 18992 ft 474 kts 289°
2026-05-06 07:31 -34.57149 137.82224 19709 ft 473 kts 282°
2026-05-06 07:31 -34.56336 137.78336 20380 ft 475 kts 279°
2026-05-06 07:32 -34.55653 137.74438 21032 ft 478 kts 277°
2026-05-06 07:32 -34.55006 137.70474 21636 ft 481 kts 277°
2026-05-06 07:32 -34.54368 137.66489 22198 ft 485 kts 277°
2026-05-06 07:32 -34.53715 137.62439 22748 ft 488 kts 277°
2026-05-06 07:33 -34.53064 137.58438 23316 ft 490 kts 277°
2026-05-06 07:33 -34.52395 137.54366 23805 ft 494 kts 277°
2026-05-06 07:33 -34.51717 137.50273 24555 ft 492 kts 277°
2026-05-06 07:33 -34.51044 137.46230 25448 ft 487 kts 277°
2026-05-06 07:34 -34.50375 137.42229 26300 ft 482 kts 277°
2026-05-06 07:34 -34.49711 137.38258 26969 ft 481 kts 278°
2026-05-06 07:34 -34.49041 137.34264 27620 ft 480 kts 278°
2026-05-06 07:34 -34.48384 137.30345 28241 ft 479 kts 278°
2026-05-06 07:35 -34.47715 137.26366 28960 ft 476 kts 278°
2026-05-06 07:35 -34.47060 137.22488 29675 ft 472 kts 278°
2026-05-06 07:35 -34.46399 137.18573 30270 ft 471 kts 279°
2026-05-06 07:35 -34.45744 137.14697 30835 ft 470 kts 279°
2026-05-06 07:36 -34.45092 137.10857 31464 ft 466 kts 279°
2026-05-06 07:36 -34.44440 137.07022 32094 ft 463 kts 279°
2026-05-06 07:36 -34.43796 137.03242 32667 ft 460 kts 279°
2026-05-06 07:36 -34.43150 136.99454 33310 ft 456 kts 279°
2026-05-06 07:37 -34.42510 136.95709 33844 ft 454 kts 279°
2026-05-06 07:37 -34.41879 136.92027 34399 ft 450 kts 279°
2026-05-06 07:37 -34.41239 136.88297 34886 ft 448 kts 279°
2026-05-06 07:37 -34.40608 136.84619 35266 ft 446 kts 279°
2026-05-06 07:38 -34.39981 136.80983 35602 ft 445 kts 279°
2026-05-06 07:38 -34.39346 136.77293 35939 ft 444 kts 279°
2026-05-06 07:38 -34.38714 136.73642 36178 ft 445 kts 279°
2026-05-06 07:38 -34.38075 136.69949 36256 ft 450 kts 279°
2026-05-06 07:39 -34.36779 136.62480 36264 ft 454 kts 279°
2026-05-06 07:39 -34.36139 136.58817 36263 ft 443 kts 279°
2026-05-06 07:39 -34.35506 136.55203 36263 ft 437 kts 279°
2026-05-06 07:40 -34.34238 136.47951 36272 ft 442 kts 279°
2026-05-06 07:40 -34.32957 136.40648 36268 ft 449 kts 279°
2026-05-06 07:41 -34.31642 136.33194 36270 ft 448 kts 280°
2026-05-06 07:41 -34.30343 136.25859 36265 ft 448 kts 280°
2026-05-06 07:42 -34.29037 136.18509 36266 ft 447 kts 280°
2026-05-06 07:42 -34.27721 136.11128 36265 ft 449 kts 280°
2026-05-06 07:43 -34.26406 136.03777 36273 ft 449 kts 280°
2026-05-06 07:43 -34.25078 135.96382 36285 ft 448 kts 280°
2026-05-06 07:44 -34.23754 135.89033 36292 ft 450 kts 280°
2026-05-06 07:44 -34.22409 135.81606 36286 ft 450 kts 280°
2026-05-06 07:45 -34.21066 135.74210 36290 ft 450 kts 280°
2026-05-06 07:45 -34.19711 135.66772 36291 ft 452 kts 280°
2026-05-06 07:46 -34.18362 135.59401 36295 ft 450 kts 280°
2026-05-06 07:46 -34.17007 135.52017 36288 ft 450 kts 280°
2026-05-06 07:47 -34.15627 135.44524 36294 ft 451 kts 280°
2026-05-06 07:47 -34.14303 135.37088 36299 ft 451 kts 277°
2026-05-06 07:48 -34.13555 135.29584 36296 ft 450 kts 273°
2026-05-06 07:48 -34.13106 135.22040 36301 ft 451 kts 272°
2026-05-06 07:49 -34.12720 135.14493 36297 ft 451 kts 272°
2026-05-06 07:49 -34.12336 135.06883 36301 ft 454 kts 272°
2026-05-06 07:50 -34.11948 134.99310 36297 ft 454 kts 272°
2026-05-06 07:50 -34.11552 134.91690 36293 ft 453 kts 272°
2026-05-06 07:51 -34.11153 134.84099 36293 ft 454 kts 272°
2026-05-06 07:51 -34.10749 134.76506 36295 ft 452 kts 271°
2026-05-06 07:52 -34.10341 134.68912 36303 ft 453 kts 271°
2026-05-06 07:52 -34.09925 134.61275 36311 ft 455 kts 271°
2026-05-06 07:53 -34.09506 134.53664 36314 ft 456 kts 272°
2026-05-06 07:53 -34.09152 134.47317 36317 ft 456 kts 271°
2026-05-06 07:54 -34.08725 134.39725 36320 ft 456 kts 271°
2026-05-06 07:54 -34.08291 134.32088 36318 ft 456 kts 272°
2026-05-06 07:55 -34.07848 134.24383 36311 ft 456 kts 272°
2026-05-06 07:55 -34.07407 134.16794 36303 ft 454 kts 272°
2026-05-06 07:56 -34.06959 134.09160 36304 ft 457 kts 272°
2026-05-06 07:56 -34.06507 134.01533 36310 ft 458 kts 272°
2026-05-06 07:57 -34.06046 133.93855 36302 ft 458 kts 272°
2026-05-06 07:57 -34.05582 133.86206 36308 ft 459 kts 272°
2026-05-06 07:58 -34.05112 133.78523 36309 ft 459 kts 272°
2026-05-06 07:58 -34.04638 133.70854 36303 ft 459 kts 272°
2026-05-06 07:59 -34.04158 133.63173 36318 ft 459 kts 272°
2026-05-06 07:59 -34.03676 133.55543 36318 ft 459 kts 272°
2026-05-06 08:00 -34.03188 133.47878 36324 ft 459 kts 272°
2026-05-06 08:00 -34.02694 133.40193 36321 ft 460 kts 272°
2026-05-06 08:01 -34.02194 133.32516 36326 ft 460 kts 272°
2026-05-06 08:01 -34.01691 133.24847 36328 ft 459 kts 272°
2026-05-06 08:02 -34.01182 133.17172 36324 ft 460 kts 272°
2026-05-06 08:02 -34.00668 133.09491 36329 ft 459 kts 272°
2026-05-06 08:03 -34.00149 133.01804 36324 ft 460 kts 272°
2026-05-06 08:03 -33.99625 132.94102 36320 ft 461 kts 272°
2026-05-06 08:04 -33.99093 132.86360 36337 ft 462 kts 272°
2026-05-06 08:04 -33.98555 132.78609 36341 ft 462 kts 272°
2026-05-06 08:05 -33.98011 132.70853 36339 ft 462 kts 272°
2026-05-06 08:05 -33.97557 132.64435 36333 ft 462 kts 272°
2026-05-06 08:06 -33.96916 132.55437 36343 ft 463 kts 272°
2026-05-06 08:06 -33.96355 132.47633 36330 ft 462 kts 272°
2026-05-06 08:07 -33.95799 132.39980 36342 ft 463 kts 272°
2026-05-06 08:07 -33.95229 132.32194 36349 ft 465 kts 273°
2026-05-06 08:08 -33.94656 132.24432 36341 ft 463 kts 273°
2026-05-06 08:08 -33.94077 132.16655 36340 ft 464 kts 273°
2026-05-06 08:09 -33.93494 132.08902 36341 ft 464 kts 273°
2026-05-06 08:09 -33.92910 132.01190 36341 ft 464 kts 273°
2026-05-06 08:10 -33.92318 131.93440 36337 ft 465 kts 273°
2026-05-06 08:10 -33.91716 131.85628 36345 ft 467 kts 273°
2026-05-06 08:11 -33.91113 131.77873 36344 ft 466 kts 273°
2026-05-06 08:11 -33.90506 131.70126 36348 ft 466 kts 273°
2026-05-06 08:12 -33.89894 131.62376 36352 ft 467 kts 273°
2026-05-06 08:12 -33.89272 131.54555 36366 ft 468 kts 273°
2026-05-06 08:13 -33.88640 131.46736 36360 ft 466 kts 273°
2026-05-06 08:13 -33.88007 131.38991 36362 ft 467 kts 273°
2026-05-06 08:14 -33.87366 131.31197 36355 ft 469 kts 274°
2026-05-06 08:14 -33.86717 131.23395 36360 ft 468 kts 274°
2026-05-06 08:15 -33.86063 131.15575 36359 ft 469 kts 273°
2026-05-06 08:15 -33.85404 131.07768 36357 ft 469 kts 274°
2026-05-06 08:16 -33.84744 130.99997 36358 ft 469 kts 274°
2026-05-06 08:16 -33.84075 130.92186 36364 ft 470 kts 274°
2026-05-06 08:17 -33.83403 130.84398 36364 ft 470 kts 274°
2026-05-06 08:17 -33.82719 130.76541 36363 ft 470 kts 273°
2026-05-06 08:18 -33.82037 130.68744 36364 ft 471 kts 273°
2026-05-06 08:18 -33.81349 130.60950 36367 ft 471 kts 273°
2026-05-06 08:19 -33.80653 130.53124 36371 ft 472 kts 273°
2026-05-06 08:19 -33.79951 130.45283 36370 ft 472 kts 273°
2026-05-06 08:20 -33.79243 130.37431 36376 ft 472 kts 273°
2026-05-06 08:20 -33.78531 130.29578 36380 ft 473 kts 274°
2026-05-06 08:21 -33.77811 130.21713 36382 ft 473 kts 274°
2026-05-06 08:21 -33.77090 130.13879 36379 ft 473 kts 274°
2026-05-06 08:22 -33.76360 130.06021 36382 ft 472 kts 274°
2026-05-06 08:22 -33.75628 129.98175 36379 ft 473 kts 274°
2026-05-06 08:23 -33.74891 129.90340 36377 ft 474 kts 274°
2026-05-06 08:23 -33.74142 129.82437 36376 ft 476 kts 274°
2026-05-06 08:24 -33.73393 129.74576 36376 ft 475 kts 274°
2026-05-06 08:24 -33.72642 129.66765 36377 ft 475 kts 274°
2026-05-06 08:25 -33.71878 129.58847 36372 ft 476 kts 274°
2026-05-06 08:25 -33.71106 129.50915 36378 ft 476 kts 274°
2026-05-06 08:26 -33.70332 129.43019 36377 ft 476 kts 274°
2026-05-06 08:26 -33.69558 129.35167 36375 ft 475 kts 274°
2026-05-06 08:27 -33.68773 129.27264 36381 ft 478 kts 274°
2026-05-06 08:27 -33.67981 129.19328 36376 ft 478 kts 274°
2026-05-06 08:28 -33.67181 129.11385 36376 ft 478 kts 275°
2026-05-06 08:28 -33.66379 129.03465 36377 ft 478 kts 274°
2026-05-06 08:29 -33.65569 128.95515 36375 ft 478 kts 274°
2026-05-06 08:29 -33.64759 128.87613 36376 ft 479 kts 274°
2026-05-06 08:30 -33.63937 128.79649 36375 ft 479 kts 274°
2026-05-06 08:30 -33.63114 128.71736 36378 ft 479 kts 274°
2026-05-06 08:31 -33.62281 128.63760 36385 ft 480 kts 274°
2026-05-06 08:31 -33.61449 128.55852 36382 ft 480 kts 275°
2026-05-06 08:32 -33.60610 128.47925 36385 ft 481 kts 275°
2026-05-06 08:32 -33.59760 128.39947 36384 ft 481 kts 274°
2026-05-06 08:33 -33.58909 128.32007 36392 ft 481 kts 275°
2026-05-06 08:33 -33.58051 128.24046 36393 ft 481 kts 275°
2026-05-06 08:34 -33.56757 128.12138 36395 ft 481 kts 275°
2026-05-06 08:35 -33.55887 128.04198 36391 ft 482 kts 275°
2026-05-06 08:35 -33.55009 127.96204 36392 ft 482 kts 275°
2026-05-06 08:36 -33.54138 127.88268 36392 ft 482 kts 275°
2026-05-06 08:36 -33.53259 127.80304 36394 ft 483 kts 275°
2026-05-06 08:37 -33.52372 127.72319 36395 ft 482 kts 275°
2026-05-06 08:37 -33.51486 127.64397 36399 ft 482 kts 275°
2026-05-06 08:38 -33.50589 127.56422 36397 ft 482 kts 275°
2026-05-06 08:38 -33.49688 127.48462 36402 ft 483 kts 275°
2026-05-06 08:39 -33.48781 127.40487 36406 ft 483 kts 275°
2026-05-06 08:39 -33.47867 127.32501 36406 ft 484 kts 276°
2026-05-06 08:40 -33.46951 127.24548 36406 ft 484 kts 276°
2026-05-06 08:40 -33.46024 127.16543 36430 ft 482 kts 276°
2026-05-06 08:41 -33.45099 127.08594 36428 ft 484 kts 276°
2026-05-06 08:41 -33.44169 127.00656 36425 ft 483 kts 276°
2026-05-06 08:42 -33.43230 126.92686 36426 ft 484 kts 276°
2026-05-06 08:42 -33.42288 126.84727 36424 ft 485 kts 276°
2026-05-06 08:43 -33.41336 126.76733 36417 ft 485 kts 276°
2026-05-06 08:43 -33.40382 126.68771 36411 ft 485 kts 276°
2026-05-06 08:44 -33.39425 126.60825 36407 ft 484 kts 276°
2026-05-06 08:44 -33.38459 126.52846 36406 ft 483 kts 276°
2026-05-06 08:45 -33.37487 126.44868 36407 ft 484 kts 276°
2026-05-06 08:45 -33.36513 126.36912 36410 ft 485 kts 276°
2026-05-06 08:46 -33.35535 126.28970 36415 ft 485 kts 276°
2026-05-06 08:46 -33.34548 126.20990 36410 ft 485 kts 276°
2026-05-06 08:47 -33.33554 126.12997 36421 ft 485 kts 276°
2026-05-06 08:47 -33.32557 126.05035 36427 ft 485 kts 276°
2026-05-06 08:48 -33.31558 125.97087 36428 ft 485 kts 276°
2026-05-06 08:48 -33.30550 125.89120 36421 ft 485 kts 276°
2026-05-06 08:49 -33.29538 125.81158 36424 ft 485 kts 276°
2026-05-06 08:49 -33.28519 125.73179 36425 ft 486 kts 276°
2026-05-06 08:50 -33.27501 125.65251 36429 ft 486 kts 276°
2026-05-06 08:50 -33.26473 125.57291 36426 ft 486 kts 276°
2026-05-06 08:51 -33.25435 125.49286 36659 ft 489 kts 276°
2026-05-06 08:51 -33.24914 125.45288 36170 ft 488 kts 276°
2026-05-06 08:51 -33.24396 125.41328 36631 ft 480 kts 276°
2026-05-06 08:51 -33.23880 125.37388 36468 ft 485 kts 277°
2026-05-06 08:52 -33.23357 125.33406 36429 ft 485 kts 277°
2026-05-06 08:52 -33.22311 125.25465 36421 ft 484 kts 277°
2026-05-06 08:53 -33.21259 125.17519 36429 ft 486 kts 277°
2026-05-06 08:53 -33.20204 125.09593 36434 ft 486 kts 277°
2026-05-06 08:54 -33.19139 125.01643 36439 ft 485 kts 277°
2026-05-06 08:54 -33.18063 124.93677 36433 ft 485 kts 277°
2026-05-06 08:55 -33.16989 124.85774 36438 ft 485 kts 277°
2026-05-06 08:55 -33.15904 124.77837 36437 ft 485 kts 277°
2026-05-06 08:56 -33.14817 124.69920 36441 ft 485 kts 277°
2026-05-06 08:56 -33.13725 124.62004 36433 ft 485 kts 277°
2026-05-06 08:57 -33.12622 124.54060 36430 ft 486 kts 277°
2026-05-06 08:57 -33.11515 124.46117 36420 ft 486 kts 277°
2026-05-06 08:58 -33.10408 124.38204 36416 ft 485 kts 277°
2026-05-06 08:58 -33.09291 124.30267 36422 ft 484 kts 278°
2026-05-06 08:59 -33.08179 124.22399 36269 ft 481 kts 278°
2026-05-06 08:59 -33.07623 124.18484 36386 ft 484 kts 278°
2026-05-06 08:59 -33.07058 124.14501 36415 ft 489 kts 278°
2026-05-06 09:00 -33.05915 124.06488 36421 ft 490 kts 278°
2026-05-06 09:00 -33.04763 123.98462 36436 ft 487 kts 278°
2026-05-06 09:01 -33.03613 123.90479 36436 ft 489 kts 278°
2026-05-06 09:01 -33.02464 123.82539 36440 ft 488 kts 278°
2026-05-06 09:02 -33.01298 123.74520 36441 ft 488 kts 278°
2026-05-06 09:02 -33.00718 123.70539 36250 ft 493 kts 278°
2026-05-06 09:02 -33.00135 123.66557 36739 ft 487 kts 278°
2026-05-06 09:02 -32.99551 123.62568 36504 ft 491 kts 278°
2026-05-06 09:03 -32.98963 123.58573 36439 ft 487 kts 278°
2026-05-06 09:03 -32.97794 123.50645 36433 ft 484 kts 278°
2026-05-06 09:04 -32.96625 123.42742 36437 ft 487 kts 278°
2026-05-06 09:04 -32.95443 123.34796 36438 ft 487 kts 278°
2026-05-06 09:05 -32.94267 123.26926 36431 ft 486 kts 278°
2026-05-06 09:05 -32.93075 123.18985 36435 ft 487 kts 278°
2026-05-06 09:06 -32.91878 123.11050 36437 ft 487 kts 278°
2026-05-06 09:06 -32.90676 123.03107 36437 ft 487 kts 278°
2026-05-06 09:07 -32.89466 122.95154 36430 ft 488 kts 278°
2026-05-06 09:07 -32.88256 122.87234 36422 ft 489 kts 278°
2026-05-06 09:08 -32.87031 122.79250 36426 ft 489 kts 278°
2026-05-06 09:08 -32.85802 122.71278 36435 ft 488 kts 278°
2026-05-06 09:09 -32.84571 122.63326 36436 ft 489 kts 278°
2026-05-06 09:09 -32.83336 122.55382 36437 ft 489 kts 278°
2026-05-06 09:10 -32.82089 122.47395 36441 ft 489 kts 278°
2026-05-06 09:10 -32.80846 122.39473 36437 ft 489 kts 278°
2026-05-06 09:11 -32.79586 122.31471 36440 ft 490 kts 279°
2026-05-06 09:11 -32.78331 122.23537 36437 ft 490 kts 279°
2026-05-06 09:12 -32.77066 122.15572 36435 ft 490 kts 279°
2026-05-06 09:12 -32.75802 122.07649 36439 ft 490 kts 279°
2026-05-06 09:13 -32.74531 121.99721 36433 ft 490 kts 279°
2026-05-06 09:13 -32.73247 121.91729 36431 ft 489 kts 279°
2026-05-06 09:14 -32.72173 121.83805 36428 ft 489 kts 276°
2026-05-06 09:14 -32.71296 121.75805 36426 ft 490 kts 275°
2026-05-06 09:15 -32.71152 121.74425 36427 ft 490 kts 275°
2026-05-06 09:15 -32.69687 121.60215 36427 ft 489 kts 275°
2026-05-06 09:16 -32.68852 121.52206 36428 ft 489 kts 275°
2026-05-06 09:16 -32.68011 121.44194 36428 ft 490 kts 275°
2026-05-06 09:17 -32.67165 121.36201 36427 ft 490 kts 275°
2026-05-06 09:17 -32.66306 121.28123 36430 ft 491 kts 276°
2026-05-06 09:18 -32.65447 121.20110 36427 ft 490 kts 276°
2026-05-06 09:18 -32.64581 121.12073 36435 ft 489 kts 276°
2026-05-06 09:19 -32.63713 121.04063 36442 ft 490 kts 276°
2026-05-06 09:19 -32.62840 120.96055 36446 ft 489 kts 276°
2026-05-06 09:20 -32.61963 120.88064 36442 ft 490 kts 276°
2026-05-06 09:20 -32.61076 120.80023 36438 ft 490 kts 276°
2026-05-06 09:21 -32.60191 120.72049 36436 ft 490 kts 276°
2026-05-06 09:21 -32.59295 120.64028 36431 ft 490 kts 276°
2026-05-06 09:22 -32.58394 120.56008 36431 ft 489 kts 276°
2026-05-06 09:22 -32.57489 120.47998 36423 ft 490 kts 276°
2026-05-06 09:23 -32.56582 120.40007 36426 ft 490 kts 276°
2026-05-06 09:23 -32.55671 120.32034 36424 ft 490 kts 276°
2026-05-06 09:24 -32.54753 120.24053 36424 ft 491 kts 276°
2026-05-06 09:24 -32.53822 120.15995 36426 ft 491 kts 276°
2026-05-06 09:25 -32.52893 120.08009 36422 ft 490 kts 276°
2026-05-06 09:25 -32.51957 120.00000 36415 ft 489 kts 276°
2026-05-06 09:26 -32.51018 119.92016 36424 ft 489 kts 276°
2026-05-06 09:26 -32.50073 119.84032 36420 ft 490 kts 276°
2026-05-06 09:27 -32.49123 119.76042 36423 ft 490 kts 276°
2026-05-06 09:27 -32.48166 119.68028 36425 ft 491 kts 276°
2026-05-06 09:28 -32.47200 119.59997 36420 ft 490 kts 276°
2026-05-06 09:28 -32.46241 119.52064 36419 ft 489 kts 276°
2026-05-06 09:29 -32.45274 119.44115 36409 ft 489 kts 276°
2026-05-06 09:29 -32.44297 119.36121 36419 ft 489 kts 276°
2026-05-06 09:30 -32.43316 119.28134 36422 ft 490 kts 277°
2026-05-06 09:30 -32.42335 119.20193 36420 ft 490 kts 277°
2026-05-06 09:30 -32.41837 119.16180 36596 ft 486 kts 277°
2026-05-06 09:31 -32.41347 119.12239 36339 ft 488 kts 277°
2026-05-06 09:31 -32.40349 119.04235 36418 ft 495 kts 277°
2026-05-06 09:32 -32.39336 118.96171 36420 ft 492 kts 277°
2026-05-06 09:32 -32.38331 118.88205 36416 ft 490 kts 277°
2026-05-06 09:33 -32.37321 118.80236 36416 ft 492 kts 277°
2026-05-06 09:33 -32.36299 118.72221 36415 ft 492 kts 277°
2026-05-06 09:34 -32.35297 118.64209 36410 ft 491 kts 275°
2026-05-06 09:34 -32.34959 118.56218 36414 ft 490 kts 268°
2026-05-06 09:35 -32.35112 118.48151 36415 ft 489 kts 266°
2026-05-06 09:35 -32.35371 118.40132 36413 ft 489 kts 266°
2026-05-06 09:36 -32.35627 118.32136 36408 ft 489 kts 266°
2026-05-06 09:36 -32.35873 118.24038 35880 ft 497 kts 266°
2026-05-06 09:36 -32.35993 118.19990 35388 ft 497 kts 266°
2026-05-06 09:37 -32.36113 118.15866 34880 ft 497 kts 266°
2026-05-06 09:37 -32.36228 118.11830 34388 ft 498 kts 266°
2026-05-06 09:37 -32.36344 118.07733 33808 ft 496 kts 266°
2026-05-06 09:37 -32.36459 118.03649 33204 ft 496 kts 266°
2026-05-06 09:38 -32.36571 117.99594 32590 ft 498 kts 266°
2026-05-06 09:38 -32.36685 117.95455 31949 ft 501 kts 266°
2026-05-06 09:38 -32.36797 117.91351 31331 ft 507 kts 266°
2026-05-06 09:38 -32.36910 117.87140 30700 ft 512 kts 266°
2026-05-06 09:39 -32.37021 117.82938 30061 ft 512 kts 266°
2026-05-06 09:39 -32.37130 117.78754 29377 ft 505 kts 266°
2026-05-06 09:39 -32.37233 117.74676 28716 ft 499 kts 266°
2026-05-06 09:39 -32.37335 117.70586 28048 ft 495 kts 267°
2026-05-06 09:40 -32.37211 117.66538 27383 ft 494 kts 274°
2026-05-06 09:40 -32.36676 117.62498 26716 ft 490 kts 280°
2026-05-06 09:40 -32.35050 117.54779 25403 ft 482 kts 284°
2026-05-06 09:41 -32.34139 117.50978 24744 ft 478 kts 284°
2026-05-06 09:41 -32.33221 117.47213 24083 ft 473 kts 284°
2026-05-06 09:41 -32.32316 117.43504 23430 ft 469 kts 284°
2026-05-06 09:41 -32.31419 117.39818 22785 ft 465 kts 284°
2026-05-06 09:42 -32.30536 117.36176 22147 ft 461 kts 284°
2026-05-06 09:42 -32.29657 117.32546 21511 ft 457 kts 285°
2026-05-06 09:42 -32.28781 117.28921 20905 ft 453 kts 285°
2026-05-06 09:42 -32.27925 117.25384 20291 ft 450 kts 285°
2026-05-06 09:43 -32.27065 117.21832 19686 ft 446 kts 285°
2026-05-06 09:43 -32.26221 117.18347 19194 ft 442 kts 285°
2026-05-06 09:43 -32.25376 117.14864 18716 ft 442 kts 284°
2026-05-06 09:43 -32.24524 117.11359 18235 ft 438 kts 284°
2026-05-06 09:44 -32.23685 117.07910 17760 ft 435 kts 284°
2026-05-06 09:44 -32.22848 117.04474 17284 ft 432 kts 285°
2026-05-06 09:44 -32.22021 117.01085 16813 ft 428 kts 285°
2026-05-06 09:44 -32.21198 116.97715 16341 ft 425 kts 284°
2026-05-06 09:45 -32.20383 116.94386 15874 ft 422 kts 285°
2026-05-06 09:45 -32.19408 116.91136 15405 ft 420 kts 293°
2026-05-06 09:45 -32.18018 116.88105 14938 ft 419 kts 301°
2026-05-06 09:45 -32.16389 116.85271 14467 ft 416 kts 304°
2026-05-06 09:46 -32.14653 116.82541 13997 ft 413 kts 307°
2026-05-06 09:46 -32.12900 116.79890 13531 ft 410 kts 307°
2026-05-06 09:46 -32.11136 116.77244 13062 ft 408 kts 307°
2026-05-06 09:46 -32.09388 116.74621 12592 ft 406 kts 307°
2026-05-06 09:47 -32.07634 116.71983 12121 ft 403 kts 307°
2026-05-06 09:47 -32.05927 116.69411 11658 ft 400 kts 307°
2026-05-06 09:47 -32.04223 116.66846 11188 ft 397 kts 308°
2026-05-06 09:47 -32.02516 116.64275 10715 ft 395 kts 308°
2026-05-06 09:48 -32.00841 116.61755 10285 ft 388 kts 308°
2026-05-06 09:48 -31.99216 116.59309 10212 ft 368 kts 308°
2026-05-06 09:48 -31.97664 116.56974 10152 ft 350 kts 308°
2026-05-06 09:48 -31.96239 116.54717 10092 ft 334 kts 304°
2026-05-06 09:49 -31.94995 116.52526 10036 ft 318 kts 302°
2026-05-06 09:49 -31.93831 116.50328 9770 ft 312 kts 301°
2026-05-06 09:49 -31.92714 116.48154 9444 ft 307 kts 301°
2026-05-06 09:49 -31.91623 116.46014 9129 ft 303 kts 301°
2026-05-06 09:50 -31.90538 116.43887 8819 ft 299 kts 301°
2026-05-06 09:50 -31.89479 116.41814 8509 ft 296 kts 301°
2026-05-06 09:50 -31.88415 116.39734 8191 ft 293 kts 301°
2026-05-06 09:50 -31.87364 116.37679 7871 ft 291 kts 301°
2026-05-06 09:51 -31.86325 116.35648 7555 ft 290 kts 301°
2026-05-06 09:51 -31.85293 116.33634 7242 ft 288 kts 302°
2026-05-06 09:51 -31.84257 116.31612 6924 ft 288 kts 302°
2026-05-06 09:51 -31.83215 116.29580 6603 ft 287 kts 302°
2026-05-06 09:52 -31.82199 116.27599 6280 ft 285 kts 302°
2026-05-06 09:52 -31.81190 116.25559 5948 ft 284 kts 298°
2026-05-06 09:52 -31.80403 116.23426 5615 ft 284 kts 291°
2026-05-06 09:52 -31.79788 116.21217 5280 ft 284 kts 288°
2026-05-06 09:53 -31.79247 116.19003 4944 ft 283 kts 287°
2026-05-06 09:53 -31.78724 116.16774 4604 ft 283 kts 286°
2026-05-06 09:53 -31.78205 116.14544 4273 ft 282 kts 286°
2026-05-06 09:53 -31.77693 116.12347 3956 ft 276 kts 286°
2026-05-06 09:54 -31.77186 116.10169 3621 ft 270 kts 285°
2026-05-06 09:54 -31.76938 116.08032 3288 ft 266 kts 265°
2026-05-06 09:54 -31.77501 116.06012 2964 ft 258 kts 239°
2026-05-06 09:54 -31.78464 116.04241 2653 ft 253 kts 233°
2026-05-06 09:55 -31.79469 116.02594 2509 ft 241 kts 231°
2026-05-06 09:55 -31.80549 116.01174 2466 ft 219 kts 211°
2026-05-06 09:55 -31.81766 116.00181 2271 ft 208 kts 201°
2026-05-06 09:55 -31.83075 115.99735 2097 ft 187 kts 189°
2026-05-06 09:56 -31.84295 115.99348 1822 ft 175 kts 188°
2026-05-06 09:56 -31.85450 115.99001 1534 ft 164 kts 188°
2026-05-06 09:56 -31.86528 115.98683 1298 ft 153 kts 188°
2026-05-06 09:56 -31.87537 115.98389 1084 ft 143 kts 188°
2026-05-06 09:57 -31.88496 115.98112 919 ft 139 kts 188°
2026-05-06 09:57 -31.89432 115.97845 744 ft 136 kts 187°
2026-05-06 09:57 -31.90359 115.97581 574 ft 137 kts 190°
2026-05-06 09:57 -31.91268 115.97298 384 ft 132 kts 189°
2026-05-06 09:58 -31.92189 115.97036 223 ft 134 kts 191°
2026-05-06 09:58 -31.93085 115.96778 72 ft 132 kts 191°
2026-05-06 09:58 -31.93918 115.96536 73 ft 105 kts 195°
2026-05-06 09:58 -31.94487 115.96373 77 ft 62 kts 194°
2026-05-06 09:59 -31.94843 115.96269 78 ft 29 kts 194°
2026-05-06 09:59 -31.94992 115.96229 78 ft 21 kts 183°
2026-05-06 09:59 -31.95093 115.96320 80 ft 18 kts 106°
2026-05-06 09:59 -31.95109 115.96396 82 ft 7 kts 104°
2026-05-06 10:00 -31.95111 115.96409 82 ft 1 kts 104°
2026-05-06 10:00 -31.95118 115.96504 83 ft 21 kts 64°
2026-05-06 10:00 -31.94945 115.96593 82 ft 32 kts 12°
2026-05-06 10:00 -31.94716 115.96658 78 ft 34 kts 14°
2026-05-06 10:01 -31.94479 115.96728 77 ft 34 kts 13°
2026-05-06 10:01 -31.94266 115.96790 76 ft 28 kts 13°
2026-05-06 10:01 -31.94071 115.96845 74 ft 28 kts 13°
2026-05-06 10:01 -31.93926 115.96907 73 ft 17 kts 62°
2026-05-06 10:02 -31.93933 115.97037 74 ft 15 kts 104°
2026-05-06 10:02 -31.93956 115.97151 76 ft 13 kts 104°
2026-05-06 10:02 -31.93965 115.97214 78 ft 3 kts 85°
2026-05-06 10:02 -31.93963 115.97224 78 ft 0 kts 67°
2026-05-06 10:03 -31.93960 115.97231 78 ft 3 kts 68°
2026-05-06 10:03 -31.93957 115.97251 78 ft 0 kts 98°
2026-05-06 10:03 -31.93959 115.97258 78 ft 0 kts 126°
2026-05-06 10:03 -31.93959 115.97259 78 ft 0 kts 126°
2026-05-06 10:04 -31.93965 115.97265 79 ft 3 kts 144°
2026-05-06 10:04 -31.93980 115.97275 79 ft 0 kts 150°
2026-05-06 10:04 -31.93995 115.97285 80 ft 6 kts 150°
2026-05-06 10:05 -31.94025 115.97304 80 ft 3 kts 151°
2026-05-06 10:05 -31.94032 115.97308 81 ft 1 kts 152°